Cosmos 676 Rocket - Orbit

View from above orbital plane
View from above orbital plane
View from above satellite
View from above satellite

Ground track
Ground track

The orbit data is extracted from the following two-line orbital elements,

1 07434U 74071B   13168.14342170  .00000130  00000-0  53727-4 0  9563
2 07434 074.0485 016.0970 0021809 287.1949 221.6342 14.36041450 26939
Epoch (UTC): 17 June 2013 03:26:31
Eccentricity: 0.0021809
inclination: 74.0485°
perigee height: 756 km
apogee height: 787 km
right ascension of ascending node: 16.0970°
argument of perigee: 287.1949°
revolutions per day: 14.36041450
mean anomaly at epoch: 221.6342°
orbit number at epoch: 2693

The dashed part of the orbit path shows where the satellite is in the earth's shadow,  

Developed and maintained by Chris Peat, Heavens-Above GmbH. Please read the updated FAQ before sending e-mail. Imprint. DLR